Total_Precipitation_Accumulation
0.96 0.87 0.87 0.99 0.94 0.93 1.00 1.06 0.91 0.79 0.71 0.62 0.57 0.49 0.44 0.40 0.32 0.26 0.29 0.32 0.43 0.54 0.68 0.70 0.56 0.35 0.25 0.29 0.38 0.49 0.57 0.65 0.77 0.72 0.57 0.48 0.44 0.37 0.26 0.18 0.16 0.11 0.08
1.01 1.02 0.90 0.97 1.09 1.11 1.06 1.04 0.98 0.83 0.74 0.68 0.59 0.53 0.45 0.37 0.32 0.28 0.26 0.28 0.33 0.37 0.54 0.73 0.68 0.50 0.38 0.35 0.40 0.46 0.49 0.54 0.64 0.65 0.56 0.48 0.50 0.44 0.32 0.23 0.23 0.16 0.11
1.02 1.03 0.89 0.93 1.05 1.22 1.17 1.08 0.98 0.92 0.72 0.61 0.58 0.53 0.51 0.39 0.33 0.35 0.29 0.25 0.25 0.31 0.46 0.72 0.80 0.66 0.54 0.48 0.44 0.42 0.43 0.47 0.54 0.59 0.55 0.50 0.46 0.43 0.34 0.27 0.26 0.23 0.20
1.03 1.10 1.00 0.94 1.08 1.26 1.38 1.38 1.19 1.05 0.88 0.72 0.66 0.59 0.53 0.49 0.40 0.34 0.31 0.28 0.27 0.26 0.35 0.53 0.74 0.89 0.76 0.56 0.46 0.42 0.38 0.36 0.38 0.45 0.45 0.40 0.33 0.32 0.29 0.29 0.31 0.33 0.31
0.96 1.14 1.19 1.14 1.16 1.30 1.33 1.36 1.30 1.09 1.00 0.90 0.75 0.64 0.53 0.46 0.44 0.32 0.30 0.30 0.33 0.29 0.28 0.30 0.40 0.51 0.59 0.65 0.61 0.47 0.39 0.34 0.32 0.33 0.33 0.26 0.22 0.23 0.25 0.27 0.30 0.31 0.32
1.17 1.31 1.38 1.36 1.34 1.36 1.30 1.39 1.51 1.25 1.04 1.04 0.97 0.76 0.58 0.45 0.44 0.38 0.34 0.29 0.30 0.31 0.28 0.24 0.24 0.17 0.26 0.47 0.54 0.47 0.42 0.40 0.33 0.29 0.27 0.21 0.16 0.16 0.19 0.22 0.24 0.25 0.27
1.39 1.52 1.61 1.62 1.53 1.41 1.39 1.54 1.82 1.68 1.31 1.15 1.16 0.98 0.73 0.53 0.51 0.41 0.35 0.33 0.29 0.30 0.31 0.30 0.24 0.22 0.16 0.19 0.23 0.36 0.42 0.47 0.42 0.37 0.28 0.22 0.16 0.12 0.12 0.15 0.18 0.20 0.22
1.48 1.56 1.74 1.83 1.75 1.70 1.76 1.74 1.88 1.97 1.72 1.47 1.38 1.47 1.20 0.89 0.55 0.39 0.37 0.33 0.32 0.35 0.34 0.35 0.29 0.23 0.20 0.18 0.12 0.18 0.28 0.41 0.45 0.40 0.33 0.27 0.20 0.13 0.10 0.10 0.13 0.16 0.18
1.68 1.64 1.75 1.94 1.88 1.82 1.81 1.94 2.13 2.30 2.19 1.97 1.74 1.75 1.41 1.16 1.03 0.58 0.38 0.36 0.36 0.37 0.38 0.40 0.35 0.31 0.28 0.24 0.19 0.14 0.13 0.21 0.38 0.43 0.40 0.32 0.28 0.19 0.15 0.11 0.11 0.13 0.13
1.60 1.58 1.70 1.90 2.03 2.10 2.11 2.16 2.13 2.34 2.45 2.23 2.17 1.86 1.54 1.33 1.35 1.10 0.68 0.45 0.43 0.41 0.41 0.40 0.35 0.38 0.37 0.30 0.28 0.19 0.13 0.12 0.29 0.47 0.49 0.41 0.32 0.23 0.19 0.14 0.12 0.14 0.16
1.68 1.60 1.64 1.71 1.75 1.82 1.92 2.05 2.09 2.24 2.31 2.36 2.33 2.17 1.93 1.68 1.26 1.17 1.13 0.85 0.62 0.43 0.42 0.46 0.46 0.43 0.42 0.38 0.40 0.27 0.19 0.14 0.20 0.39 0.54 0.54 0.41 0.29 0.21 0.16 0.13 0.13 0.14
1.66 1.58 1.53 1.61 1.64 1.63 1.75 1.85 1.93 2.11 2.22 2.29 2.33 2.19 2.00 1.85 1.60 1.34 1.17 1.08 0.96 0.66 0.51 0.48 0.49 0.51 0.53 0.52 0.47 0.44 0.31 0.20 0.19 0.27 0.40 0.57 0.54 0.40 0.29 0.20 0.16 0.16 0.16
1.30 1.30 1.23 1.28 1.41 1.46 1.63 1.70 1.63 1.66 1.80 1.94 2.08 2.10 2.02 1.87 1.83 1.72 1.54 1.35 1.15 0.82 0.65 0.53 0.45 0.53 0.62 0.68 0.71 0.71 0.45 0.32 0.25 0.26 0.28 0.33 0.44 0.48 0.43 0.35 0.30 0.27 0.26
1.00 0.96 0.96 0.97 1.03 1.11 1.32 1.52 1.50 1.51 1.57 1.63 1.70 1.90 1.95 1.88 1.87 1.69 1.54 1.50 1.29 1.04 0.79 0.61 0.48 0.45 0.53 0.64 0.91 1.00 0.60 0.47 0.38 0.33 0.30 0.26 0.25 0.31 0.41 0.46 0.44 0.41 0.37
0.78 0.75 0.78 0.85 0.90 0.90 0.99 1.11 1.30 1.38 1.42 1.48 1.51 1.62 1.65 1.69 1.69 1.57 1.54 1.46 1.31 1.09 0.91 0.75 0.66 0.57 0.56 0.60 0.88 0.86 0.68 0.62 0.52 0.46 0.38 0.29 0.27 0.25 0.29 0.34 0.37 0.39 0.38
0.70 0.70 0.66 0.67 0.72 0.73 0.83 0.92 0.98 1.10 1.17 1.31 1.47 1.58 1.58 1.58 1.60 1.54 1.49 1.49 1.38 1.13 0.96 0.83 0.71 0.65 0.75 0.73 0.87 0.78 0.80 0.89 0.66 0.52 0.44 0.39 0.32 0.26 0.22 0.21 0.20 0.21 0.21
0.54 0.55 0.57 0.63 0.62 0.63 0.65 0.65 0.69 0.76 0.83 0.93 1.00 1.10 1.30 1.48 1.52 1.52 1.54 1.54 1.48 1.31 1.06 0.97 0.79 0.75 0.87 0.88 0.88 0.82 0.87 0.93 0.77 0.64 0.49 0.43 0.38 0.31 0.27 0.25 0.21 0.18 0.16
0.46 0.47 0.53 0.57 0.57 0.61 0.64 0.63 0.62 0.62 0.70 0.78 0.81 0.82 0.92 1.14 1.27 1.37 1.43 1.45 1.47 1.43 1.25 1.18 1.09 0.88 0.84 0.89 0.98 1.04 0.99 0.97 0.94 0.93 0.80 0.59 0.47 0.39 0.32 0.27 0.23 0.18 0.16
0.58 0.60 0.60 0.64 0.61 0.63 0.62 0.63 0.64 0.63 0.65 0.72 0.76 0.78 0.83 0.93 1.07 1.14 1.23 1.32 1.39 1.50 1.44 1.22 1.25 1.19 1.00 0.96 0.98 1.04 1.08 1.15 1.08 1.06 1.10 0.95 0.75 0.60 0.49 0.40 0.33 0.26 0.21
0.51 0.53 0.62 0.70 0.77 0.82 0.80 0.76 0.73 0.70 0.65 0.68 0.75 0.81 0.81 0.82 0.93 1.14 1.26 1.32 1.34 1.42 1.50 1.41 1.34 1.34 1.19 1.07 1.03 1.05 1.18 1.26 1.25 1.10 1.03 1.01 0.96 0.83 0.67 0.55 0.45 0.38 0.34
0.43 0.44 0.52 0.61 0.70 0.79 0.84 0.83 0.68 0.58 0.60 0.65 0.64 0.66 0.74 0.82 0.84 0.97 1.12 1.34 1.34 1.40 1.45 1.47 1.39 1.27 1.17 1.06 0.99 0.98 1.04 1.24 1.30 1.27 1.22 1.07 0.96 0.82 0.71 0.64 0.58 0.51 0.44
0.37 0.39 0.43 0.42 0.44 0.48 0.63 0.63 0.51 0.43 0.48 0.57 0.65 0.67 0.68 0.69 0.71 0.74 0.77 1.01 1.18 1.27 1.33 1.31 1.34 1.24 1.13 1.05 1.08 1.06 0.99 1.04 1.19 1.20 1.09 1.17 1.11 0.96 0.85 0.73 0.75 0.75 0.67
0.34 0.36 0.31 0.27 0.28 0.32 0.37 0.35 0.40 0.43 0.46 0.51 0.59 0.68 0.73 0.71 0.76 0.84 0.78 0.82 0.91 0.97 1.06 1.14 1.15 1.11 1.08 1.04 1.08 1.09 1.03 0.95 0.87 0.95 0.97 1.07 1.11 1.02 0.91 0.81 0.78 0.72 0.69
0.28 0.36 0.31 0.29 0.32 0.28 0.30 0.34 0.37 0.41 0.55 0.61 0.60 0.61 0.72 0.77 0.82 0.97 0.95 1.01 0.93 0.83 0.81 0.85 0.95 0.98 0.94 1.03 1.11 1.25 1.26 1.10 0.98 0.97 0.94 0.95 0.95 0.89 0.82 0.79 0.81 0.66 0.59
0.19 0.18 0.22 0.37 0.37 0.33 0.40 0.38 0.32 0.40 0.53 0.61 0.56 0.60 0.71 0.81 0.94 1.04 1.09 1.10 0.99 0.88 0.91 0.97 1.03 1.06 1.05 1.11 1.18 1.23 1.24 1.19 1.10 1.06 0.91 0.80 0.77 0.77 0.77 0.73 0.71 0.70 0.63
0.09 0.10 0.14 0.26 0.33 0.34 0.34 0.24 0.24 0.37 0.50 0.58 0.59 0.61 0.82 0.83 0.90 0.95 1.00 1.10 1.09 0.96 0.89 0.90 0.94 0.97 0.96 1.01 1.16 1.19 1.24 1.25 1.12 1.06 0.92 0.76 0.72 0.78 0.85 0.75 0.62 0.58 0.56